Showing default

HAWK-14A, 68448

Orbit data source: Space-Track

HAWK-14A, 68448 is a payload satellite owned by HawkEye 360 (US) in SSO that was launched on Mon, 30 Mar 2026 UTC via an FALCON 9 launch vehicle from the Air Force Western Test Range (AFWTR). Payload-class satellites include a variety of spacecraft equipped with specific instruments for various scientific and technological missions. These include communications satellites like Starlink; space stations such as the ISS; scientific satellites like the Hubble; Earth observation satellites from companies like Planet Labs, Umbra, and HawkEye 360; GPS; miniature CubeSats for education and research; and military/defense satellites.

Loading next visibility...
Identifier
68448, 2026-067AJ
Orbit
SSO
Country
Flag of USUS
Related business
Manufacturer
UTIAS-SFL
Mission
Operational spacecraft
Bus & Motor
HAWK2G, Unknown motor
Mass
31 kg wet, 30 kg dry
Launch date (UTC)
2026-03-30 (1 month ago)
Launch vehicle
FALCON 9
Launch site
Air Force Western Test Range (AFWTR)
Object type
Payload
Rocket body
Debris
Shape & HBR
Unknown shape, 14.5 m
Radar Cross Section
RCS unknown

Expand to show TLE details & history
Last TLE update: 20 hours ago

TLE from 20 hours ago
0 HAWK-14A
1 68448U 26067AJ  26126.88597322  .00003524  00000-0  17691-3 0  9993
2 68448  97.4587  86.0190 0002630 187.2061 172.9136 15.17942556  5674
Epoch: 2026-05-06T21:15Z
TLE epoch observation values (Epoch: 2026-05-06T21:15:48.086Z)
Latitude
0.00004°
Longitude
-97.6714°
Altitude
516.944 km
Speed
7.604 km/s
True Right ascension
05h 44m 04s
True Declination
0° 00' 00"
Sunlit
Object was in daylight at epoch
Visualization orbit readout
Latitude
Unknown
Longitude
Unknown
Altitude
Unknown
Speed
Unknown
Apparent Right ascension
Unknown
Apparent Declination
Unknown
Sunlit
N/A
Visualization observer readout
Local Sidereal Time
01:02:52
Azimuth
Unknown
Elevation
Unknown
Doppler factor
Unknown
Orbital elements
Apogee altitude
510.842 km
Perigee altitude
507.219 km
Semi-major axis
6,887.167 km
Eccentricity
0.00026
Inclination
97.4587°
RAAN
86.019°
Arg. of periapsis
187.2061°
True anomaly
172.91732°
Mean anomaly
172.9136°
Eccentric anomaly
172.91546°
Mean motion
3.79736 °/min
Orbital period
94.8 mins
BSTAR
0.00017691
Loading maneuver chart data...
Computing Atmospheric mass density...
Loading historical data...
Loading historical data...
Loading historical data...
Loading historical data...
Loading historical data...
Loading historical data...
Loading historical data...

Documentation

Showing up to 5 results
|